This is the latest recevied weather packets stored in our database for station/object SR8NGO-1. If no packets are shown the sender has not sent any weather packets the latest 1 day(s).
| Time | Temp. | Humidity | Pressure | Rain* | Wind** | Luminosity | Snow |
|---|---|---|---|---|---|---|---|
| 1778006687 | 17.78° C | 46% | 997.8 hPa | 125.98 mm | 1.34 m/s, 155° | - | - |
| 1778006448 | 17.78° C | 45% | 997.8 hPa | 125.98 mm | 1.34 m/s, 139° | - | - |
| 1778006208 | 17.78° C | 45% | 997.7 hPa | 125.98 mm | 1.34 m/s, 127° | - | - |
| 1778005967 | 17.78° C | 45% | 997.7 hPa | 125.98 mm | 0.89 m/s, 121° | - | - |
| 1778005727 | 17.78° C | 45% | 997.7 hPa | 125.98 mm | 0.89 m/s, 134° | - | - |
| 1778005488 | 17.78° C | 44% | 997.7 hPa | 125.98 mm | 1.34 m/s, 139° | - | - |
| 1778005248 | 17.78° C | 44% | 997.7 hPa | 125.98 mm | 1.79 m/s, 166° | - | - |
| 1778005007 | 18.89° C | 44% | 997.6 hPa | 125.98 mm | 1.79 m/s, 155° | - | - |
| 1778004767 | 18.89° C | 43% | 997.6 hPa | 125.98 mm | 1.79 m/s, 139° | - | - |
| 1778004528 | 18.89° C | 43% | 997.6 hPa | 125.98 mm | 0.89 m/s, 151° | - | - |
| 1778004287 | 18.89° C | 43% | 997.6 hPa | 127 mm | 2.68 m/s, 117° | - | - |
| 1778004047 | 18.89° C | 42% | 997.6 hPa | 127 mm | 1.79 m/s, 145° | - | - |
| 1778003808 | 18.89° C | 42% | 997.5 hPa | 127 mm | 1.79 m/s, 162° | - | - |
| 1778003568 | 20° C | 42% | 997.5 hPa | 128.02 mm | 1.34 m/s, 132° | - | - |
| 1778003328 | 20° C | 41% | 997.5 hPa | 130.05 mm | 1.34 m/s, 145° | - | - |
| 1778003087 | 20° C | 41% | 997.5 hPa | 131.06 mm | 0.89 m/s, 134° | - | - |
| 1778002847 | 20° C | 41% | 997.4 hPa | 132.08 mm | 1.34 m/s, 151° | - | - |
| 1778002608 | 21.11° C | 41% | 997.4 hPa | 133.1 mm | 1.34 m/s, 145° | - | - |
| 1778002367 | 21.11° C | 40% | 997.4 hPa | 133.1 mm | 1.34 m/s, 151° | - | - |
| 1778002128 | 21.11° C | 40% | 997.4 hPa | 134.11 mm | 1.79 m/s, 138° | - | - |
| 1778001887 | 21.11° C | 40% | 997.4 hPa | 134.11 mm | 1.79 m/s, 151° | - | - |
| 1778001648 | 21.11° C | 40% | 997.4 hPa | 134.87 mm | 1.34 m/s, 132° | - | - |
| 1778001407 | 22.22° C | 39% | 997.4 hPa | 135.89 mm | 1.79 m/s, 151° | - | - |
| 1778001168 | 22.22° C | 39% | 997.4 hPa | 137.92 mm | 1.79 m/s, 138° | - | - |
| 1778000927 | 22.22° C | 39% | 997.4 hPa | 137.92 mm | 1.34 m/s, 144° | - | - |
* Rain latest hour (hover to see other rain measurements)
** Current wind speed in m/s (hover to see current wind gust speed)